Tracking 29892 objects as of 21-Nov-2024
HD Live streaming from Space Station
objects crossing your sky now

FENGYUN 1C DEB

Track FENGYUN 1C DEB now!
10-day predictions


NORAD ID: 30972
Int'l Code: 1999-025BBN
Perigee: 663.7 km
Apogee: 688.7 km
Inclination: 98.9 °
Period: 98.1 minutes
Semi major axis: 7047 km
RCS: 0.0137 m2 (small)
Launch date: May 10, 1999
Source: People's Republic of China (PRC)
Launch site: Taiyaun Space Center, China (TSC)

Note: This is SATELLITE DEBRIS
Your satellite tracking list
Your tracking list is empty




NASA's NSSDC Master Catalog

Two Line Element Set (TLE):
1 30972U 99025BBN 24325.84735517  .00061682  00000-0  10772-1 0  9993
2 30972  98.9251  98.6455 0017797 247.2993 112.6327 14.67498718918972
Source of the keplerian elements: AFSPC